Date String (YYYY-MM-DD hh:mm:ss) UTC,Instrument flags,absolute air pressure of the measurement (hPa),sample flow rate (lpm),inlet stack bypass flow (lpm),air temperature of the measurement (°C),ambient temperature measured by the external sensor (°C),aerosol sample conditioner tube jacket temperature (°C),OPC LED temperature (°C),internal box temperature (°C),relative humidity of the measurement (%),span deviation,mass concentration of particles derived from Lorenz-Mie calculation of OPC scattering (μg/m³),mass concentration of particles derived from Lorenz-Mie calculation of OPC scattering (μg/m³),mass concentration of particles derived from Lorenz-Mie calculation of OPC scattering (μg/m³)
DateTimeUTC,F1_M11,P_M11,Q1_M11,Q2_M11,T1_M11,T2_M11,T3_M11,T4_M11,T5_M11,U1_M11,ZSPAN_M11,X2_M11,X0_M11,X1_M11
2023-06-04 13:00:00,SystemResetWarning,0833.9,5.01,000.00,030.4,028.8,000.0,038.7,032.0,29.2,0000.0,0003.68,0009.98,0002.76
2023-06-04 13:01:00,SystemResetWarning,0833.9,5.00,000.00,030.4,028.8,000.0,038.8,032.0,29.2,0000.0,0003.67,0010.11,0002.77
2023-06-04 13:02:00,SystemResetWarning,0834.0,5.00,000.00,030.4,028.8,000.0,038.8,032.0,29.2,0000.0,0003.66,0010.55,0002.78
2023-06-04 13:03:00,SystemResetWarning,0833.9,5.01,000.00,030.4,028.8,000.0,038.8,032.0,29.2,0000.0,0003.67,0010.33,0002.81
2023-06-04 13:04:00,SystemResetWarning,0833.9,5.00,000.00,030.4,028.8,000.0,038.8,032.0,29.2,0000.0,0003.69,0010.40,0002.81
2023-06-04 13:05:00,SystemResetWarning,0833.8,5.00,000.00,030.4,028.8,000.0,038.8,032.0,29.3,0000.0,0003.67,0010.42,0002.81
2023-06-04 13:06:00,SystemResetWarning,0833.9,5.00,000.00,030.4,028.8,000.0,038.8,032.0,29.3,0000.0,0003.69,0010.50,0002.82
2023-06-04 13:07:00,SystemResetWarning,0833.8,4.99,000.00,030.4,028.8,000.0,038.8,032.0,29.3,0000.0,0003.68,0010.01,0002.82
2023-06-04 13:08:00,SystemResetWarning,0833.8,4.99,000.00,030.4,028.8,000.0,038.8,032.0,29.3,0000.0,0003.67,0008.91,0002.82
2023-06-04 13:09:00,SystemResetWarning,0833.9,5.00,000.00,030.4,028.8,000.0,038.8,032.0,29.3,0000.0,0003.75,0008.85,0002.83
2023-06-04 13:10:00,SystemResetWarning,0833.9,5.00,000.00,030.4,028.8,000.0,038.8,032.0,29.3,0000.0,0003.75,0008.50,0002.85
2023-06-04 13:11:00,SystemResetWarning,0834.0,5.01,000.00,030.4,028.8,000.0,038.8,032.0,29.4,0000.0,0003.74,0008.36,0002.84
2023-06-04 13:12:00,SystemResetWarning,0834.0,5.00,000.00,030.4,028.8,000.0,038.8,032.0,29.3,0000.0,0003.74,0008.18,0002.84
2023-06-04 13:13:00,SystemResetWarning,0834.0,5.00,000.00,030.4,028.8,000.0,038.8,032.0,29.3,0000.0,0003.72,0007.35,0002.85
2023-06-04 13:14:00,SystemResetWarning,0834.0,5.00,000.00,030.4,028.8,000.0,038.8,032.0,29.4,0000.0,0003.75,0007.33,0002.85
2023-06-04 13:15:00,SystemResetWarning,0834.0,5.00,000.00,030.4,028.8,000.0,038.8,032.0,29.3,0000.0,0003.79,0007.37,0002.87
2023-06-04 13:16:00,SystemResetWarning,0834.0,5.00,000.00,030.4,028.8,000.0,038.8,032.0,29.4,0000.0,0003.84,0007.46,0002.88
2023-06-04 13:17:00,SystemResetWarning,0834.0,5.00,000.00,030.4,028.8,000.0,038.8,032.0,29.5,0000.0,0003.83,0007.48,0002.86
2023-06-04 13:18:00,SystemResetWarning,0834.0,5.00,000.00,030.4,028.8,000.0,038.8,032.0,29.5,0000.0,0003.83,0007.50,0002.86
2023-06-04 13:19:00,SystemResetWarning,0834.0,5.00,000.00,030.4,028.8,000.0,038.8,032.0,29.5,0000.0,0003.79,0007.55,0002.85
2023-06-04 13:20:00,SystemResetWarning,0834.0,5.00,000.00,030.4,028.8,000.0,038.8,032.0,29.5,0000.0,0003.70,0007.52,0002.84
2023-06-04 13:21:00,SystemResetWarning,0834.0,5.00,000.00,030.4,028.8,000.0,038.8,032.0,29.4,0000.0,0003.69,0007.79,0002.84
2023-06-04 13:22:00,SystemResetWarning,0834.0,5.00,000.00,030.4,028.8,000.0,038.8,032.0,29.4,0000.0,0003.69,0007.83,0002.86
2023-06-04 13:23:00,SystemResetWarning,0834.0,4.99,000.00,030.4,028.9,000.0,038.8,032.0,29.4,0000.0,0003.70,0008.27,0002.86
2023-06-04 13:24:00,SystemResetWarning,0834.0,4.99,000.00,030.4,028.9,000.0,038.8,032.0,29.4,0000.0,0003.71,0008.35,0002.85
2023-06-04 13:25:00,SystemResetWarning,0834.1,5.00,000.00,030.4,028.9,000.0,038.8,032.0,29.5,0000.0,0003.67,0008.90,0002.83
2023-06-04 13:26:00,SystemResetWarning,0834.1,5.00,000.00,030.4,028.8,000.0,038.8,032.0,29.5,0000.0,0003.63,0008.81,0002.82
2023-06-04 13:27:00,SystemResetWarning,0834.0,5.00,000.00,030.4,028.8,000.0,038.8,032.0,29.5,0000.0,0003.58,0008.65,0002.80
2023-06-04 13:28:00,SystemResetWarning,0834.1,5.00,000.00,030.4,028.8,000.0,038.8,032.0,29.4,0000.0,0003.53,0008.42,0002.82
2023-06-04 13:29:00,SystemResetWarning,0834.1,5.00,000.00,030.4,028.8,000.0,038.8,032.0,29.4,0000.0,0003.48,0008.37,0002.80
2023-06-04 13:30:00,SystemResetWarning,0834.1,5.00,000.00,030.4,028.8,000.0,038.8,032.0,29.5,0000.0,0003.46,0008.20,0002.79
2023-06-04 13:31:00,SystemResetWarning,0834.1,5.00,000.00,030.4,028.8,000.0,038.8,032.0,29.5,0000.0,0003.44,0007.91,0002.80
2023-06-04 13:32:00,SystemResetWarning,0834.1,5.00,000.00,030.4,028.8,000.0,038.8,032.0,29.5,0000.0,0003.42,0008.69,0002.80
2023-06-04 13:33:00,SystemResetWarning,0834.2,5.00,000.00,030.4,028.8,000.0,038.8,032.0,29.6,0000.0,0003.41,0008.69,0002.78
2023-06-04 13:34:00,SystemResetWarning,0834.1,5.00,000.00,030.4,028.8,000.0,038.8,032.0,29.6,0000.0,0003.41,0008.23,0002.78
2023-06-04 13:35:00,SystemResetWarning,0834.2,5.00,000.00,030.4,028.8,000.0,038.8,032.0,29.6,0000.0,0003.39,0008.11,0002.80
2023-06-04 13:36:00,SystemResetWarning,0834.2,4.99,000.00,030.4,028.8,000.0,038.8,032.0,29.7,0000.0,0003.37,0007.46,0002.82
2023-06-04 13:37:00,SystemResetWarning,0834.2,4.99,000.00,030.4,028.8,000.0,038.8,032.0,29.7,0000.0,0003.36,0007.43,0002.84
2023-06-04 13:38:00,SystemResetWarning,0834.2,5.01,000.00,030.4,028.8,000.0,038.8,032.0,29.8,0000.0,0003.35,0007.38,0002.87
2023-06-04 13:39:00,SystemResetWarning,0834.4,5.01,000.00,030.4,028.8,000.0,038.8,032.0,29.8,0000.0,0003.36,0007.38,0002.90
2023-06-04 13:40:00,SystemResetWarning,0834.4,5.00,000.00,030.4,028.8,000.0,038.8,032.0,29.8,0000.0,0003.40,0007.36,0002.95
2023-06-04 13:41:00,SystemResetWarning,0834.3,5.01,000.00,030.4,028.8,000.0,038.8,032.0,29.8,0000.0,0003.44,0007.39,0003.00
2023-06-04 13:42:00,SystemResetWarning,0834.3,4.99,000.00,030.4,028.8,000.0,038.8,032.0,29.9,0000.0,0003.48,0007.42,0003.05
2023-06-04 13:43:00,SystemResetWarning,0834.4,4.99,000.00,030.4,028.8,000.0,038.8,032.0,29.8,0000.0,0003.49,0005.51,0003.09
2023-06-04 13:44:00,SystemResetWarning,0834.4,5.00,000.00,030.4,028.8,000.0,038.8,032.0,29.8,0000.0,0003.49,0005.24,0003.11
2023-06-04 13:45:00,SystemResetWarning,0834.4,5.01,000.00,030.4,028.8,000.0,038.8,032.0,29.8,0000.0,0003.48,0005.21,0003.12
2023-06-04 13:46:00,SystemResetWarning,0834.4,5.01,000.00,030.4,028.8,000.0,038.8,032.0,29.8,0000.0,0003.47,0005.18,0003.12
2023-06-04 13:47:00,SystemResetWarning,0834.5,5.00,000.00,030.4,028.8,000.0,038.8,032.0,29.6,0000.0,0003.46,0005.84,0003.12
2023-06-04 13:48:00,SystemResetWarning,0834.5,5.00,000.00,030.4,028.8,000.0,038.8,032.0,29.5,0000.0,0003.47,0005.94,0003.13
2023-06-04 13:49:00,SystemResetWarning,0834.5,4.99,000.00,030.4,028.8,000.0,038.8,032.0,29.5,0000.0,0003.49,0006.01,0003.14
2023-06-04 13:50:00,SystemResetWarning,0834.5,5.00,000.00,030.4,028.8,000.0,038.8,032.0,29.5,0000.0,0003.48,0005.95,0003.14
2023-06-04 13:51:00,SystemResetWarning,0834.6,5.00,000.00,030.4,028.8,000.0,038.8,032.0,29.5,0000.0,0003.44,0005.79,0003.12
2023-06-04 13:52:00,SystemResetWarning,0834.5,5.00,000.00,030.4,028.8,000.0,038.8,032.0,29.5,0000.0,0003.40,0005.65,0003.10
2023-06-04 13:53:00,SystemResetWarning,0834.5,5.01,000.00,030.4,028.8,000.0,038.8,032.0,29.4,0000.0,0003.39,0005.64,0003.09
2023-06-04 13:54:00,SystemResetWarning,0834.5,5.00,000.00,030.4,028.8,000.0,038.8,032.0,29.4,0000.0,0003.36,0005.57,0003.05
2023-06-04 13:55:00,SystemResetWarning,0834.5,4.99,000.00,030.4,028.8,000.0,038.8,032.0,29.3,0000.0,0003.35,0005.89,0003.03
2023-06-04 13:56:00,SystemResetWarning,0834.5,4.99,000.00,030.4,028.8,000.0,038.8,032.0,29.2,0000.0,0003.34,0006.12,0003.00
2023-06-04 13:57:00,SystemResetWarning,0834.5,5.00,000.00,030.4,028.8,000.0,038.8,032.0,29.2,0000.0,0003.34,0006.12,0002.97
2023-06-04 13:58:00,SystemResetWarning,0834.5,5.00,000.00,030.4,028.8,000.0,038.8,032.0,29.1,0000.0,0003.34,0005.28,0002.95
2023-06-04 13:59:00,SystemResetWarning,0834.5,5.01,000.00,030.4,028.8,000.0,038.8,032.0,29.1,0000.0,0003.30,0005.02,0002.93
